Location: Bremen
(53.0833°N, 8.8000°E)
Time: 14:09:30
(UTC+02:00)

ISS - Pass Details

Date: 30 April 2025
Orbit: 416 x 419 km, 51.6° (Epoch: 14 May)

Event Time Altitude Azimuth Distance (km) Brightness Sun altitude
Exits shadow 04:33:24 14° 253° (WSW) 1,256 -1.9 -10.7°
Maximum altitude 04:36:07 65° 173° (S) 463 -3.7 -10.4°
Drops below altitude 10° 04:39:28 10° 91° (E) 1,498 -0.2 -10.0°
Sets 04:41:34 0° 88° (E) 2,363 0.9 -9.8°
